Location: Newark
(44.2764°N, 5.2753°E)
Time: 03:04:22
(UTC+00:00)

X-37B - Pass Details

Date: 12 March 2021
Orbit: 380 x 394 km, 45.0° (Epoch: 07 April)

Event Time Altitude Azimuth Distance (km) Brightness Sun altitude
Rises 19:52:04 0° 250° (WSW) 2,269 5.2 -23.8°
Reaches altitude 10° 19:54:08 10° 248° (WSW) 1,418 4.0 -24.1°
Enters shadow 19:55:24 22° 244° (WSW) 912 2.9 -24.4°
